Location: Sabalos
(43.2860°N, 0.1414°E)
Time: 20:58:30
(UTC+00:00)

CZ-4C R/B - Pass Details

Date: 05 July 2020
Orbit: 632 x 1370 km, 63.4° (Epoch: 14 August)

Event Time Altitude Azimuth Distance (km) Brightness Sun altitude
Rises 23:24:43 0° 325° (NW) 3,724 6.6 -23.4°
Reaches altitude 10° 23:27:31 10° 336° (NNW) 2,888 6.0 -23.5°
Maximum altitude 23:33:40 32° 38° (NE) 1,927 4.4 -23.7°
Drops below altitude 10° 23:40:39 10° 98° (E) 3,304 5.1 -23.8°
Sets 23:44:03 0° 108° (ESE) 4,338 5.7 -23.9°
